Weather History for KFHR - September, 2012

Change the Weather History Date:

Wednesday, September 26, 2012

  Actual Average Record
Temperature  
Mean Temperature 52 °F -  
Max Temperature 62 °F 62 °F 73 °F (2006)
Min Temperature 41 °F 44 °F 39 °F (2000)
Degree Days  
Heating Degree Days 14    
Growing Degree Days 2 (Base 50)    
Moisture  
Dew Point 46 °F    
Average Humidity 92    
Maximum Humidity 100    
Minimum Humidity 65    
Precipitation  
Precipitation 0.00 in - - ()
Sea Level Pressure  
Sea Level Pressure 30.12 in    
Wind  
Wind Speed 0 mph (ESE)    
Max Wind Speed 5 mph    
Max Gust Speed -    
Visibility 4 miles    
Events Fog    
Averages and records for this station are not official NWS values.
T = Trace of Precipitation, MM = Missing Value Source: NWS Daily Summary

Daily Weather History Graph

Daily Weather History Graph

Search for Another Location

Airport or City:

Trip Planner

Search our weather history database for the weather conditions in past years. The results will help you decide how hot, cold, wet, or windy it might be!

Date:

Astronomy

Sep. 26, 2012 Rise Set
Actual Time 7:05 AM PDT 7:00 PM PDT
Civil Twilight 6:33 AM PDT 7:31 PM PDT
Nautical Twilight 5:57 AM PDT 8:07 PM PDT
Astronomical Twilight 5:19 AM PDT 8:45 PM PDT
Moon 5:13 PM PDT (9/26) 3:23 AM PDT (9/26)
Length of Visible Light 12h 57m
Length of Day
11h 55m
Waxing Gibbous, 88% of the Moon is Illuminated
Sep 26
Waxing Gibbous
Sep 29
Full
Oct 8
Last Quarter
Oct 15
New
Oct 21
First Quarter

Hourly Weather History & Observations

Time (PDT) Temp. Windchill Dew Point Humidity Pressure Visibility Wind Dir Wind Speed Gust Speed Precip Events Conditions
12:15 AM 46.4 °F - 44.6 °F 93% 30.14 in 6.0 mi Calm Calm - N/A   Scattered Clouds
12:23 AM 46.4 °F - 44.6 °F 93% 30.14 in 7.0 mi Calm Calm - N/A   Mostly Cloudy
1:01 AM 48.2 °F - 46.4 °F 93% 30.13 in 1.8 mi Calm Calm - N/A   Overcast
1:12 AM 48.2 °F - 48.2 °F 100% 30.13 in 0.5 mi Calm Calm - N/A Fog Fog
1:29 AM 46.4 °F - 44.6 °F 93% 30.13 in 1.5 mi Calm Calm - N/A   Overcast
1:44 AM 46.4 °F - 46.4 °F 100% 30.13 in 0.5 mi Calm Calm - N/A Fog Fog
1:53 AM 46.0 °F 44.8 °F 45.0 °F 96% 30.13 in 0.2 mi West 3.5 mph - N/A Fog Fog
2:53 AM 46.0 °F - 45.0 °F 96% 30.14 in 0.2 mi Calm Calm - N/A Fog Fog
3:53 AM 45.0 °F - 44.1 °F 97% 30.12 in 0.5 mi Calm Calm - N/A Fog Fog
3:58 AM 42.8 °F - 42.8 °F 100% 30.12 in 2.0 mi Calm Calm - N/A   Mostly Cloudy
4:02 AM 42.8 °F - 42.8 °F 100% 30.12 in 6.0 mi Calm Calm - N/A   Scattered Clouds
4:17 AM 42.8 °F - 42.8 °F 100% 30.12 in 7.0 mi Calm Calm - N/A   Mostly Cloudy
4:53 AM 42.1 °F - 41.0 °F 96% 30.12 in 8.0 mi Calm Calm - N/A   Mostly Cloudy
5:13 AM 41.0 °F - 41.0 °F 100% 30.12 in 1.8 mi Calm Calm - N/A   Mostly Cloudy
5:41 AM 42.8 °F - 42.8 °F 100% 30.13 in 0.2 mi Calm Calm - N/A Fog Fog
5:53 AM 43.0 °F - 42.1 °F 97% 30.13 in 0.2 mi Calm Calm - N/A Fog Fog
6:53 AM 44.1 °F - 44.1 °F 100% 30.13 in 0.2 mi Calm Calm - N/A Fog Fog
7:53 AM 44.1 °F - 43.0 °F 96% 30.14 in 2.0 mi Calm Calm - N/A   Overcast
7:58 AM 44.6 °F - 42.8 °F 93% 30.14 in 0.8 mi Calm Calm - N/A   Mist
8:49 AM 46.4 °F - 46.4 °F 100% 30.14 in 1.5 mi Calm Calm - N/A   Mostly Cloudy
8:53 AM 46.9 °F - 46.9 °F 100% 30.14 in 4.0 mi Calm Calm - N/A   Overcast
9:42 AM 48.2 °F - 48.2 °F 100% 30.14 in 1.8 mi Calm Calm - N/A   Overcast
9:53 AM 50.0 °F - 48.0 °F 93% 30.15 in 1.2 mi Calm Calm - N/A   Overcast
10:04 AM 48.2 °F - 48.2 °F 100% 30.14 in 0.5 mi Calm Calm - N/A Fog Fog
10:35 AM 48.2 °F - 46.4 °F 93% 30.14 in 2.0 mi ESE 3.5 mph - N/A   Overcast
10:38 AM 48.2 °F - 46.4 °F 93% 30.14 in 0.8 mi ESE 3.5 mph - N/A   Overcast
10:53 AM 50.0 °F - 48.0 °F 93% 30.14 in 0.2 mi Calm Calm - N/A Fog Fog
11:34 AM 53.6 °F - 48.2 °F 82% 30.14 in 2.5 mi ESE 4.6 mph - N/A   Mostly Cloudy
11:41 AM 53.6 °F - 48.2 °F 82% 30.13 in 10.0 mi ESE 3.5 mph - N/A   Scattered Clouds
11:53 AM 53.1 °F - 48.0 °F 83% 30.14 in 4.0 mi ESE 4.6 mph - N/A   Haze
12:53 PM 55.9 °F - 48.9 °F 77% 30.12 in 10.0 mi ESE 3.5 mph - N/A   Clear
1:53 PM 57.9 °F - 50.0 °F 75% 30.11 in 10.0 mi Calm Calm - N/A   Clear
2:53 PM 55.9 °F - 48.9 °F 77% 30.10 in 8.0 mi Calm Calm - N/A   Clear
3:53 PM 57.0 °F - 48.9 °F 74% 30.09 in 10.0 mi Calm Calm - N/A   Clear
4:53 PM 62.1 °F - 50.0 °F 65% 30.08 in 10.0 mi Calm Calm - N/A   Clear
5:53 PM 57.9 °F - 48.9 °F 72% 30.07 in 10.0 mi Calm Calm - N/A   Clear
6:53 PM 54.0 °F - 48.0 °F 80% 30.07 in 10.0 mi Calm Calm - N/A   Clear
7:53 PM 50.0 °F - 46.9 °F 89% 30.07 in 10.0 mi Calm Calm - N/A   Clear
8:53 PM 46.9 °F - 45.0 °F 93% 30.08 in 10.0 mi Calm Calm - N/A   Clear
9:53 PM 46.0 °F - 44.1 °F 93% 30.09 in 10.0 mi Calm Calm - N/A   Clear
10:53 PM 45.0 °F - 44.1 °F 97% 30.09 in 9.0 mi Calm Calm - N/A   Clear
11:53 PM 45.0 °F - 44.1 °F 97% 30.09 in 7.0 mi Calm Calm - N/A   Clear